Regional Weather Roundup
Issued by NWS Kansas City/Pleasant Hill, MO

Home | Current Version | Previous Version | Text Only | Print | Product List | Glossary On
Versions: 1 2 3 4 5 6 7 8 9 10 11 12 13 14 15 16 17 18 19 20 21 22 23 24 25 26 27 28 29 30 31 32 33 34 35 36 37 38 39 40 41 42 43 44 45 46 47 48 49 50
674
ASUS43 KEAX 230710
RWREAX

WEATHER ROUNDUP FOR EASTERN KANSAS AND NORTHWEST MISSOURI
NATIONAL WEATHER SERVICE KANSAS CITY/PLEASANT HILL MO
200 AM CDT MON APR 23 2018

KSZ040-057-103>105-MOZ028-029-037-043-230800-
...KANSAS CITY METROPOLITAN AREA...

CITY           SKY/WX    TMP DP  RH WIND       PRES   REMARKS
K.C. INTL      CLOUDY    54  32  43 NE10      30.10S
K.C. DOWNTOWN  CLOUDY    60  30  32 NE8       30.08F
LEES SUMMIT    CLOUDY    55  35  47 N10       30.08S
OLATHE - IXD   CLOUDY    58  33  39 NE10      30.08F
OLATHE - OJC   CLOUDY    57  33  40 NE9       30.07F
LAWRENCE       CLOUDY    57  38  48 NE8       30.09S

$$

MOZ001>008-011>017-020>025-030>033-038>040-044>046-053-054-230800-
...NORTHERN AND CENTRAL MISSOURI...

CITY           SKY/WX    TMP DP  RH WIND       PRES   REMARKS
ST. JOSEPH     PTCLDY    54  29  38 NE7       30.12S
MOSBY          CLOUDY    57  28  33 NE7       30.09S
WARRENSBURG    CLOUDY    54  34  47 N8        30.05F
WHITEMAN AFB   CLOUDY    55  35  48 NE13      30.00F
CLINTON        CLOUDY    54  41  62 N8        30.03F
SEDALIA        CLOUDY    58  37  45 NE13      30.05S
WARSAW         NOT AVBL
CHILLICOTHE      N/A     58  27  30 N6        30.11F
KIRKSVILLE     CLOUDY    54  32  43 NE9       30.12S

$$

MOZ041-047>049-056>058-063>065-088>090-097-230800-
...EASTERN AND SOUTHERN MISSOURI...

CITY           SKY/WX    TMP DP  RH WIND       PRES   REMARKS
ST. LOUIS INTL CLOUDY    58  39  49 NE7       30.02F
SPIRIT OF STL  CLOUDY    57  45  64 NE8       30.01F
COLUMBIA       CLOUDY    55  44  66 NE13      30.04F
JEFFERSON CITY CLOUDY    57  48  72 E5        30.03F
ROLLA          LGT RAIN  53  52  96 NE13      30.00S
OSAGE BEACH    LGT RAIN  52  52 100 NE12      30.00F
SPRINGFIELD    CLOUDY    50  49  96 N10       29.95F
BRANSON        LGT RAIN  50  50 100 NW8       29.94F
JOPLIN         CLOUDY    51  50  96 NW6       30.01S
WEST PLAINS    LGT RAIN  54  52  93 N9        29.91F

$$

IAZ060-094-KSZ022-034>040-054-083-096-NEZ052-066-093-230800-
...KANSAS...SOUTHEAST NEBRASKA AND IOWA...

CITY           SKY/WX    TMP DP  RH WIND       PRES   REMARKS
TOPEKA         MOCLDY    56  42  59 N3        30.10S
MANHATTAN      CLEAR     47  42  83 CALM      30.11F
EMPORIA        CLOUDY    54  44  69 N6        30.09S
CHANUTE        CLOUDY    56  46  69 NE8       30.06S
WICHITA        CLOUDY    53  46  77 NW8       30.10S
OMAHA          CLEAR     46  29  51 W6        30.17S
LINCOLN        CLEAR     47  31  53 NW3       30.17S
FALLS CITY     CLEAR     50  38  63 N6        30.13S
LAMONI         MOCLDY    53  29  39 NE10      30.15S
DES MOINES     CLOUDY    53  31  42 E6        30.18F

$$





USA.gov is the U.S. government's official web portal to all federal, state and local government web resources and services.